Météo par heure à Juchipila

Ce jour, 20 Juin, Dimanche

Heure Température Précipitation Vent Pression Humidité
00:00 +20°C° 0.1 mm 2 m/s 644 mmHg 87%
01:00 +20°C° 0.1 mm 2 m/s 644 mmHg 88%
02:00 +19°C° 0.1 mm 2 m/s 644 mmHg 90%
03:00 +19°C° 0 mm 2 m/s 644 mmHg 90%
04:00 +19°C° 0 mm 2 m/s 644 mmHg 91%
05:00 +20°C° 0 mm 1 m/s 644 mmHg 91%
06:00 +20°C° 0 mm 2 m/s 645 mmHg 86%
07:00 +21°C° 0 mm 2 m/s 646 mmHg 80%
08:00 +23°C° 0 mm 2 m/s 646 mmHg 74%
09:00 +25°C° 0 mm 3 m/s 646 mmHg 66%
10:00 +26°C° 0 mm 3 m/s 647 mmHg 57%
11:00 +28°C° 0 mm 3 m/s 647 mmHg 49%
12:00 +29°C° 0 mm 4 m/s 646 mmHg 45%
13:00 +30°C° 0 mm 4 m/s 646 mmHg 41%
14:00 +32°C° 0 mm 4 m/s 645 mmHg 37%
15:00 +32°C° 0 mm 4 m/s 645 mmHg 38%
16:00 +30°C° 0 mm 4 m/s 645 mmHg 40%
17:00 +30°C° 0 mm 4 m/s 645 mmHg 41%
18:00 +28°C° 0 mm 4 m/s 645 mmHg 46%
19:00 +27°C° 0 mm 3 m/s 645 mmHg 50%
20:00 +26°C° 0 mm 2 m/s 645 mmHg 54%
21:00 +26°C° 0 mm 2 m/s 645 mmHg 58%
22:00 +25°C° 0 mm 2 m/s 645 mmHg 61%
23:00 +25°C° 0 mm 2 m/s 645 mmHg 65%

Demain, 21 Juin, Lundi

Heure Température Précipitation Vent Pression Humidité
00:00 +24°C° 0 mm 2 m/s 645 mmHg 69%
01:00 +23°C° 0 mm 2 m/s 645 mmHg 73%
02:00 +23°C° 0 mm 2 m/s 644 mmHg 78%
03:00 +23°C° 0 mm 2 m/s 645 mmHg 80%
04:00 +21°C° 0 mm 2 m/s 645 mmHg 82%
05:00 +21°C° 0 mm 2 m/s 645 mmHg 85%
06:00 +23°C° 0 mm 1 m/s 645 mmHg 79%
07:00 +24°C° 0 mm 1 m/s 646 mmHg 74%
08:00 +25°C° 0 mm 1 m/s 646 mmHg 68%
09:00 +26°C° 0 mm 2 m/s 646 mmHg 61%
10:00 +28°C° 0 mm 2 m/s 646 mmHg 54%
11:00 +29°C° 0 mm 2 m/s 646 mmHg 47%
12:00 +31°C° 0 mm 3 m/s 646 mmHg 44%
13:00 +33°C° 0 mm 3 m/s 645 mmHg 40%
14:00 +34°C° 0 mm 4 m/s 645 mmHg 36%
15:00 +33°C° 0 mm 4 m/s 644 mmHg 37%
16:00 +33°C° 0 mm 3 m/s 644 mmHg 38%
17:00 +31°C° 0 mm 3 m/s 644 mmHg 39%
18:00 +30°C° 0 mm 3 m/s 644 mmHg 44%
19:00 +29°C° 0 mm 3 m/s 644 mmHg 48%
20:00 +28°C° 0 mm 2 m/s 644 mmHg 52%
21:00 +27°C° 0 mm 2 m/s 644 mmHg 55%
22:00 +27°C° 0 mm 2 m/s 644 mmHg 58%
23:00 +26°C° 0 mm 2 m/s 644 mmHg 61%

Après-demain, 22 Juin, Mardi

Heure Température Précipitation Vent Pression Humidité
00:00 +25°C° 0.1 mm 2 m/s 644 mmHg 64%
01:00 +25°C° 0.1 mm 2 m/s 644 mmHg 67%
02:00 +24°C° 0.1 mm 2 m/s 643 mmHg 70%
03:00 +24°C° 0.8 mm 2 m/s 643 mmHg 75%
04:00 +23°C° 0.8 mm 2 m/s 644 mmHg 79%
05:00 +22°C° 0.8 mm 1 m/s 644 mmHg 84%
06:00 +23°C° 0.7 mm 1 m/s 644 mmHg 81%
07:00 +24°C° 0.7 mm 1 m/s 645 mmHg 77%
08:00 +24°C° 0.7 mm 1 m/s 645 mmHg 74%
09:00 +25°C° 0.2 mm 2 m/s 645 mmHg 69%
10:00 +26°C° 0.2 mm 3 m/s 645 mmHg 64%
11:00 +27°C° 0.2 mm 3 m/s 645 mmHg 60%
12:00 +29°C° 0 mm 3 m/s 645 mmHg 54%
13:00 +30°C° 0 mm 2 m/s 645 mmHg 48%
14:00 +31°C° 0 mm 1 m/s 644 mmHg 43%
15:00 +31°C° 0 mm 2 m/s 644 mmHg 44%
16:00 +30°C° 0 mm 3 m/s 643 mmHg 45%
17:00 +30°C° 0 mm 4 m/s 643 mmHg 46%
18:00 +29°C° 0.3 mm 3 m/s 643 mmHg 51%
19:00 +28°C° 0.3 mm 3 m/s 643 mmHg 57%
20:00 +26°C° 0.3 mm 3 m/s 643 mmHg 62%
21:00 +26°C° 0.9 mm 2 m/s 644 mmHg 65%
22:00 +25°C° 0.9 mm 2 m/s 644 mmHg 69%
23:00 +25°C° 0.9 mm 1 m/s 644 mmHg 72%

23 Juin, Mercredi

Heure Température Précipitation Vent Pression Humidité
00:00 +23°C° 6.8 mm 2 m/s 644 mmHg 77%
01:00 +21°C° 6.8 mm 2 m/s 644 mmHg 83%
02:00 +20°C° 6.8 mm 3 m/s 644 mmHg 89%
03:00 +20°C° 2 mm 2 m/s 644 mmHg 88%
04:00 +20°C° 2 mm 2 m/s 644 mmHg 87%
05:00 +21°C° 2 mm 1 m/s 644 mmHg 87%
06:00 +22°C° 0.4 mm 1 m/s 645 mmHg 85%
07:00 +22°C° 0.4 mm 1 m/s 645 mmHg 84%
08:00 +23°C° 0.4 mm 1 m/s 646 mmHg 82%
09:00 +24°C° 0.5 mm 1 m/s 646 mmHg 76%
10:00 +25°C° 0.5 mm 2 m/s 646 mmHg 69%
11:00 +27°C° 0.5 mm 2 m/s 646 mmHg 62%
12:00 +27°C° 0.3 mm 2 m/s 646 mmHg 57%
13:00 +28°C° 0.3 mm 2 m/s 645 mmHg 53%
14:00 +29°C° 0.3 mm 2 m/s 645 mmHg 48%
15:00 +29°C° 0 mm 2 m/s 645 mmHg 49%
16:00 +29°C° 0 mm 2 m/s 644 mmHg 49%
17:00 +29°C° 0 mm 3 m/s 644 mmHg 49%
18:00 +27°C° 0.7 mm 3 m/s 644 mmHg 58%
19:00 +26°C° 0.7 mm 3 m/s 645 mmHg 67%
20:00 +24°C° 0.7 mm 3 m/s 645 mmHg 75%
21:00 +23°C° 1.3 mm 2 m/s 645 mmHg 78%
22:00 +23°C° 1.3 mm 2 m/s 646 mmHg 82%
23:00 +21°C° 1.3 mm 2 m/s 646 mmHg 85%

24 Juin, Jeudi

Heure Température Précipitation Vent Pression Humidité
00:00 +22°C° 1 mm 1 m/s 646 mmHg 85%
01:00 +22°C° 1 mm 1 m/s 645 mmHg 85%
02:00 +20°C° 1 mm 0 m/s 645 mmHg 85%
03:00 +20°C° 0 mm 0 m/s 645 mmHg 86%
04:00 +19°C° 0 mm 0 m/s 645 mmHg 86%
05:00 +19°C° 0 mm 0 m/s 645 mmHg 86%
06:00 +22°C° 0 mm 1 m/s 645 mmHg 81%
07:00 +23°C° 0 mm 1 m/s 646 mmHg 75%
08:00 +24°C° 0 mm 1 m/s 646 mmHg 70%
09:00 +26°C° 0.1 mm 2 m/s 646 mmHg 62%
10:00 +28°C° 0.1 mm 2 m/s 646 mmHg 54%
11:00 +29°C° 0.1 mm 2 m/s 646 mmHg 46%
12:00 +30°C° 0 mm 2 m/s 646 mmHg 44%
13:00 +30°C° 0 mm 2 m/s 645 mmHg 41%
14:00 +31°C° 0 mm 2 m/s 645 mmHg 39%
15:00 +28°C° 0.7 mm 2 m/s 644 mmHg 52%
16:00 +26°C° 0.7 mm 2 m/s 644 mmHg 65%
17:00 +22°C° 0.7 mm 3 m/s 643 mmHg 79%
18:00 +23°C° 0.6 mm 2 m/s 644 mmHg 78%
19:00 +23°C° 0.6 mm 2 m/s 644 mmHg 77%
20:00 +23°C° 0.6 mm 1 m/s 644 mmHg 76%
21:00 +23°C° 0.2 mm 1 m/s 645 mmHg 76%
22:00 +23°C° 0.2 mm 1 m/s 645 mmHg 76%
23:00 +23°C° 0.2 mm 1 m/s 645 mmHg 76%

25 Juin, Vendredi

Heure Température Précipitation Vent Pression Humidité
00:00 +22°C° 0 mm 1 m/s 644 mmHg 77%
01:00 +22°C° 0 mm 1 m/s 644 mmHg 78%
02:00 +21°C° 0 mm 2 m/s 644 mmHg 78%
03:00 +20°C° 0 mm 2 m/s 644 mmHg 80%
04:00 +20°C° 0 mm 2 m/s 644 mmHg 81%
05:00 +20°C° 0 mm 2 m/s 644 mmHg 82%
06:00 +21°C° 0 mm 2 m/s 644 mmHg 75%
07:00 +22°C° 0 mm 3 m/s 644 mmHg 67%
08:00 +25°C° 0 mm 3 m/s 645 mmHg 60%
09:00 +26°C° 0 mm 3 m/s 645 mmHg 52%
10:00 +28°C° 0 mm 4 m/s 645 mmHg 44%
11:00 +30°C° 0 mm 4 m/s 645 mmHg 36%
12:00 +32°C° 0 mm 4 m/s 644 mmHg 33%
13:00 +33°C° 0 mm 4 m/s 643 mmHg 29%
14:00 +34°C° 0 mm 4 m/s 643 mmHg 26%
15:00 +34°C° 0 mm 5 m/s 643 mmHg 28%
16:00 +33°C° 0 mm 6 m/s 642 mmHg 29%
17:00 +33°C° 0 mm 7 m/s 642 mmHg 31%
18:00 +30°C° 0 mm 7 m/s 642 mmHg 37%
19:00 +28°C° 0 mm 6 m/s 643 mmHg 43%
20:00 +26°C° 0 mm 6 m/s 643 mmHg 49%
21:00 +25°C° 0 mm 5 m/s 643 mmHg 52%
22:00 +25°C° 0 mm 4 m/s 643 mmHg 55%
23:00 +24°C° 0 mm 3 m/s 644 mmHg 58%
Voir plus

Nous avons besoin de votre consentement

Meteoprog et ses fournisseurs de services peuvent stocker et accéder à des données personnelles telles que des cookies, des identifiants d'appareils ou d'autres technologies similaires sur votre appareil et traiter ces données pour personnaliser le contenu et les publicités, ainsi que pour fournir des fonctionnalités de médias sociaux et analyser le trafic.

  • Stocker et/ou accéder à des informations sur votre appareil

    Des cookies, des identifiants d'appareils ou d'autres informations peuvent être stockés ou accessibles sur votre appareil aux fins indiquées ci-dessus.

  • Annonces et contenus personnalisés, mesure des annonces et des contenus, connaissance de l'audience et développement de produits

    Les annonces et le contenu peuvent être personnalisés en fonction d'un profil. D'autres données peuvent être ajoutées pour mieux personnaliser les annonces et le contenu. Les performances des publicités et du contenu peuvent être mesurées. Il est possible d'obtenir des informations sur le public qui a vu les publicités et le contenu. Ces données peuvent être utilisées pour développer ou améliorer l'expérience de l'utilisateur, les systèmes et les logiciels.

En cliquant sur "J'accepte", vous autorisez l'utilisation de cookies, des identifiants d'appareils, des balises web ou d'autres technologies similaires. Vos paramètres peuvent être modifiés dans le navigateur de votre appareil.

Dans certains cas, des intérêts légitimes peuvent être invoqués plutôt qu'un consentement. Vous pouvez en savoir plus à ce sujet dans notre Politique de confidentialité et de cookies.